DW9584 Weather Reports


Display with metric or nautical units.
time (UTC)temp
F
wind
direction
speed
MPH
gust
MPH
rain 1hr
in
rain 24hr
in
rain mn
in
humidity
%
barometer
mb
20260508234510 64 183 0.0 1.0 0.00 0.00 0.00 42 1011.4
20260508233012 64 240 0.0 4.0 0.00 0.00 0.00 42 1011.3
20260508231508 64 300 0.0 3.0 0.00 0.00 0.00 40 1011.1
20260508230006 65 220 0.0 3.0 0.00 0.00 0.00 39 1011.0
20260508224529 65 174 0.0 2.0 0.00 0.00 0.00 37 1011.0
20260508223013 65 181 0.0 3.0 0.00 0.00 0.00 37 1010.9
20260508221515 65 235 1.0 6.0 0.00 0.00 0.00 36 1011.0
20260508220012 66 237 0.0 5.0 0.00 0.00 0.00 35 1010.9
20260508214522 66 297 1.0 5.0 0.00 0.00 0.00 35 1010.8
20260508213015 68 351 2.0 5.0 0.00 0.00 0.00 34 1010.8
20260508211516 67 321 0.0 5.0 0.00 0.00 0.00 34 1010.9
20260508210005 67 332 2.0 10.0 0.00 0.00 0.00 33 1011.0
20260508204519 68 301 4.0 10.0 0.00 0.00 0.00 34 1011.1
20260508203016 66 305 2.0 6.0 0.00 0.00 0.00 36 1011.2
20260508201518 66 34 1.0 8.0 0.00 0.00 0.00 37 1011.3
20260508200030 67 147 2.0 7.0 0.00 0.00 0.00 36 1011.3
20260508194516 65 266 1.0 3.0 0.00 0.00 0.00 39 1011.6
20260508193016 66 124 1.0 10.0 0.00 0.00 0.00 36 1011.6
20260508191512 65 188 0.0 5.0 0.00 0.00 0.00 35 1011.7
20260508190022 67 270 2.0 7.0 0.00 0.00 0.00 36 1011.5
20260508184526 68 263 2.0 11.0 0.00 0.00 0.00 34 1011.6
20260508183022 67 326 3.0 8.0 0.00 0.00 0.00 34 1011.8
20260508181521 64 318 1.0 6.0 0.00 0.00 0.00 38 1012.1
20260508180020 65 59 1.0 7.0 0.00 0.00 0.00 38 1012.4
20260508174525 64 153 1.0 6.0 0.00 0.00 0.00 39 1012.7
20260508173019 65 219 2.0 10.0 0.00 0.00 0.00 35 1012.7
20260508171528 65 212 3.0 9.0 0.00 0.00 0.00 34 1012.7
20260508170027 65 194 2.0 7.0 0.00 0.00 0.00 35 1012.8
20260508164524 65 240 3.0 9.0 0.00 0.00 0.00 36 1012.8
20260508163026 65 82 2.0 8.0 0.00 0.00 0.00 39 1013.3
20260508161533 63 321 1.0 5.0 0.00 0.00 0.00 41 1013.4
20260508160030 62 28 2.0 7.0 0.00 0.00 0.00 37 1013.6
20260508154524 62 186 1.0 6.0 0.00 0.00 0.00 41 1013.8
20260508153020 61 272 2.0 7.0 0.00 0.00 0.00 39 1013.9
20260508151515 59 160 1.0 8.0 0.00 0.00 0.00 41 1013.9
20260508150020 59 166 0.0 4.0 0.00 0.00 0.00 44 1014.1
20260508144528 59 219 1.0 2.0 0.00 0.00 0.00 41 1014.2
20260508143024 58 183 2.0 7.0 0.00 0.00 0.00 42 1014.3
20260508141515 58 216 1.0 5.0 0.00 0.00 0.00 42 1014.4
20260508140006 57 354 1.0 3.0 0.00 0.00 0.00 45 1014.5
20260508134529 56 306 3.0 5.0 0.00 0.00 0.00 42 1014.6
20260508133021 55 265 1.0 2.0 0.00 0.00 0.00 45 1014.7
20260508131518 55 211 0.0 3.0 0.00 0.00 0.00 47 1014.6
20260508130020 54 311 0.0 3.0 0.00 0.00 0.00 52 1014.9
20260508124514 53 240 1.0 3.0 0.00 0.00 0.00 60 1014.8
20260508123013 52 259 0.0 2.0 0.00 0.00 0.00 63 1014.7
20260508121516 51 206 1.0 4.0 0.00 0.00 0.00 67 1014.7
20260508120006 50 273 0.0 2.0 0.00 0.00 0.00 73 1014.6
20260508114533 49 278 0.0 2.0 0.00 0.00 0.00 76 1014.4
20260508113034 47 261 0.0 3.0 0.00 0.00 0.00 80 1014.4
20260508111525 45 276 0.0 2.0 0.00 0.00 0.00 85 1014.5
20260508110019 44 248 0.0 2.0 0.00 0.00 0.00 88 1014.4
20260508104515 43 248 0.0 0.0 0.00 0.00 0.00 89 1013.9
20260508103013 43 248 0.0 0.0 0.00 0.00 0.00 88 1013.8
20260508101510 43 248 0.0 0.0 0.00 0.00 0.00 87 1013.7
20260508100034 43 248 0.0 0.0 0.00 0.00 0.00 86 1013.5
20260508094525 43 248 0.0 0.0 0.00 0.00 0.00 85 1013.4
20260508093025 44 248 0.0 0.0 0.00 0.00 0.00 83 1013.3
20260508091523 44 248 0.0 0.0 0.00 0.00 0.00 82 1013.3
20260508090025 45 248 0.0 0.0 0.00 0.01 0.00 79 1013.2
20260508084519 46 248 0.0 0.0 0.00 0.01 0.00 77 1013.1
20260508083015 47 248 0.0 0.0 0.00 0.01 0.00 74 1012.9
20260508081526 49 248 0.0 1.0 0.00 0.01 0.00 71 1012.5
20260508080028 49 195 0.0 4.0 0.00 0.01 0.00 71 1012.3
20260508074526 50 172 0.0 4.0 0.00 0.01 0.00 69 1012.0
20260508073028 51 316 1.0 4.0 0.00 0.01 0.00 68 1011.8
20260508071526 51 266 0.0 4.0 0.00 0.01 0.00 67 1011.4
20260508070021 51 282 2.0 7.0 0.00 0.01 0.00 70 1011.4
20260508064546 52 270 0.0 3.0 0.00 0.01 0.00 72 1011.1
20260508063029 51 125 1.0 5.0 0.00 0.01 0.00 74 1011.0
20260508061514 52 288 0.0 4.0 0.00 0.01 0.00 74 1010.6
20260508060015 52 282 0.0 3.0 0.00 0.02 0.00 73 1010.3
20260508054508 53 229 0.0 4.0 0.00 0.03 0.00 72 1010.2
20260508053008 54 278 0.0 3.0 0.00 0.15 0.00 71 1010.1
20260508051510 54 286 0.0 3.0 0.00 0.18 0.00 71 1010.0
20260508050008 54 229 1.0 3.0 0.00 0.18 0.00 70 1009.9
20260508044504 54 219 0.0 4.0 0.00 0.18 0.00 70 1009.8
20260508043004 54 194 0.0 2.0 0.00 0.18 0.00 71 1009.9
20260508041519 53 241 0.0 3.0 0.00 0.18 0.00 72 1009.9
20260508040017 52 201 0.0 2.0 0.00 0.18 0.00 73 1009.8
20260508034521 51 238 0.0 1.0 0.00 0.18 0.18 74 1009.9
20260508033012 52 238 0.0 0.0 0.00 0.19 0.18 71 1009.9
20260508031508 52 239 0.0 2.0 0.00 0.19 0.18 69 1009.8
20260508030004 53 228 0.0 2.0 0.00 0.19 0.18 67 1009.8
20260508024505 51 183 0.0 4.0 0.00 0.19 0.18 71 1009.8
20260508023022 50 227 0.0 0.0 0.00 0.19 0.18 74 1009.5
20260508021517 49 227 0.0 0.0 0.00 0.19 0.18 73 1009.5
20260508020015 49 227 0.0 0.0 0.00 0.19 0.18 72 1009.6
20260508014513 50 227 0.0 0.0 0.00 0.19 0.18 70 1009.3
20260508013013 51 227 0.0 0.0 0.00 0.19 0.18 68 1009.3
20260508011509 52 227 0.0 0.0 0.00 0.19 0.18 64 1009.0
20260508010020 52 227 0.0 0.0 0.00 0.19 0.18 62 1009.0
20260508004536 54 227 0.0 0.0 0.00 0.19 0.18 59 1009.0
20260508003025 55 227 0.0 0.0 0.00 0.19 0.18 55 1008.7
20260508001527 56 227 0.0 0.0 0.00 0.19 0.18 50 1008.8
20260508000019 57 227 0.0 0.0 0.00 0.19 0.18 47 1008.8